Location: Dackenheim
(49.5215°N, 8.1854°E)
Time: 13:06:25
(UTC+00:00)

BlueWalker 3 - Pass Details

Date: 28 January 2026
Orbit: 451 x 460 km, 53.2° (Epoch: 17 February)

Event Time Altitude Azimuth Distance (km) Brightness Sun altitude
Rises 18:03:10 0° 270° (W) 2,457 7.1 -17.3°
Reaches altitude 10° 18:05:21 10° 276° (W) 1,585 5.7 -17.6°
Maximum altitude 18:08:48 47° 352° (N) 607 2.3 -18.2°
Enters shadow 18:09:30 40° 29° (NNE) 675 2.3 -18.3°
